When you browse on this site, cookies collect data to enhance your experience and personalize the content and advertising you see.
Visit our Privacy Policy to learn more. By continuing to use the site, you agree to this use of cookies and data.
  • Em Portugal
  • Lista de países
  • Para 7 dias
  • Temperatura da água
  • Mapas de satélite
  • Mapa do tempo
  • Widgets de tempo
  • user-avatar
    Iniciar Sessão

    Previsão horária em Mendoza

    Hoje, 15 Dezembro, Sábado

    Tempo Temperatura Precipitação Vento Pressão Humidade
    00:00 +21°C° 0 mm 2 m/s 700 mmHg 28%
    01:00 +20°C° 0 mm 2 m/s 699 mmHg 29%
    02:00 +20°C° 0 mm 2 m/s 699 mmHg 29%
    03:00 +19°C° 0 mm 2 m/s 699 mmHg 29%
    04:00 +19°C° 0 mm 2 m/s 699 mmHg 30%
    05:00 +20°C° 0 mm 2 m/s 699 mmHg 27%
    06:00 +21°C° 0 mm 2 m/s 699 mmHg 25%
    07:00 +23°C° 0 mm 2 m/s 699 mmHg 23%
    08:00 +25°C° 0 mm 2 m/s 699 mmHg 22%
    09:00 +27°C° 0 mm 3 m/s 699 mmHg 22%
    10:00 +28°C° 0 mm 3 m/s 699 mmHg 22%
    11:00 +29°C° 0 mm 3 m/s 698 mmHg 21%
    12:00 +30°C° 0 mm 3 m/s 698 mmHg 21%
    13:00 +32°C° 0 mm 4 m/s 698 mmHg 21%
    14:00 +33°C° 0 mm 3 m/s 697 mmHg 22%
    15:00 +33°C° 0 mm 3 m/s 697 mmHg 22%
    16:00 +33°C° 0 mm 3 m/s 697 mmHg 22%
    17:00 +31°C° 0 mm 3 m/s 697 mmHg 24%
    18:00 +31°C° 0 mm 2 m/s 697 mmHg 25%
    19:00 +30°C° 0 mm 2 m/s 697 mmHg 27%
    20:00 +29°C° 0 mm 2 m/s 698 mmHg 27%
    21:00 +29°C° 0 mm 2 m/s 698 mmHg 27%
    22:00 +29°C° 0 mm 2 m/s 698 mmHg 27%
    23:00 +28°C° 0 mm 2 m/s 698 mmHg 28%

    Amanhã, 16 Dezembro, Domingo

    Tempo Temperatura Precipitação Vento Pressão Humidade
    00:00 +27°C° 0 mm 2 m/s 698 mmHg 28%
    01:00 +27°C° 0 mm 2 m/s 698 mmHg 29%
    02:00 +26°C° 0 mm 2 m/s 697 mmHg 29%
    03:00 +25°C° 0 mm 2 m/s 697 mmHg 29%
    04:00 +25°C° 0 mm 2 m/s 697 mmHg 30%
    05:00 +26°C° 0 mm 2 m/s 697 mmHg 28%
    06:00 +27°C° 0 mm 2 m/s 698 mmHg 27%
    07:00 +29°C° 0 mm 2 m/s 698 mmHg 25%
    08:00 +30°C° 0 mm 2 m/s 698 mmHg 24%
    09:00 +31°C° 0 mm 3 m/s 698 mmHg 22%
    10:00 +34°C° 0 mm 3 m/s 698 mmHg 21%
    11:00 +35°C° 0 mm 3 m/s 697 mmHg 20%
    12:00 +36°C° 0 mm 3 m/s 697 mmHg 19%
    13:00 +36°C° 0 mm 4 m/s 696 mmHg 18%
    14:00 +37°C° 0 mm 3 m/s 696 mmHg 18%
    15:00 +37°C° 0 mm 3 m/s 695 mmHg 17%
    16:00 +37°C° 0 mm 3 m/s 695 mmHg 17%
    17:00 +36°C° 0 mm 3 m/s 695 mmHg 19%
    18:00 +35°C° 0 mm 3 m/s 695 mmHg 20%
    19:00 +34°C° 0 mm 2 m/s 696 mmHg 22%
    20:00 +32°C° 0 mm 2 m/s 696 mmHg 23%
    21:00 +31°C° 0 mm 2 m/s 696 mmHg 25%
    22:00 +31°C° 0 mm 1 m/s 696 mmHg 26%
    23:00 +30°C° 0.2 mm 2 m/s 696 mmHg 28%

    Depois de amanhã, 17 Dezembro, Segunda-feira

    Tempo Temperatura Precipitação Vento Pressão Humidade
    00:00 +29°C° 0.2 mm 3 m/s 696 mmHg 30%
    01:00 +29°C° 0.2 mm 4 m/s 696 mmHg 31%
    02:00 +27°C° 0.5 mm 5 m/s 696 mmHg 34%
    03:00 +24°C° 0.5 mm 6 m/s 697 mmHg 37%
    04:00 +22°C° 0.5 mm 7 m/s 697 mmHg 40%
    05:00 +22°C° 0 mm 7 m/s 698 mmHg 39%
    06:00 +23°C° 0 mm 7 m/s 698 mmHg 37%
    07:00 +23°C° 0 mm 7 m/s 699 mmHg 36%
    08:00 +24°C° 0 mm 7 m/s 699 mmHg 35%
    09:00 +26°C° 0 mm 7 m/s 699 mmHg 34%
    10:00 +27°C° 0 mm 7 m/s 699 mmHg 34%
    11:00 +28°C° 0 mm 7 m/s 699 mmHg 33%
    12:00 +29°C° 0 mm 7 m/s 698 mmHg 33%
    13:00 +29°C° 0 mm 7 m/s 698 mmHg 32%
    14:00 +29°C° 0 mm 7 m/s 698 mmHg 33%
    15:00 +29°C° 0 mm 7 m/s 698 mmHg 35%
    16:00 +29°C° 0 mm 7 m/s 698 mmHg 36%
    17:00 +27°C° 0 mm 7 m/s 698 mmHg 40%
    18:00 +26°C° 0 mm 6 m/s 699 mmHg 45%
    19:00 +25°C° 0 mm 5 m/s 699 mmHg 49%
    20:00 +23°C° 0 mm 5 m/s 700 mmHg 54%
    21:00 +23°C° 0 mm 4 m/s 700 mmHg 59%
    22:00 +22°C° 0 mm 4 m/s 701 mmHg 64%
    23:00 +21°C° 0 mm 3 m/s 700 mmHg 66%

    18 Dezembro, Terça-feira

    Tempo Temperatura Precipitação Vento Pressão Humidade
    00:00 +21°C° 0 mm 3 m/s 700 mmHg 68%
    01:00 +20°C° 0 mm 2 m/s 700 mmHg 71%
    02:00 +20°C° 0 mm 2 m/s 700 mmHg 72%
    03:00 +20°C° 0 mm 2 m/s 700 mmHg 74%
    04:00 +19°C° 0 mm 2 m/s 700 mmHg 75%
    05:00 +20°C° 0 mm 2 m/s 700 mmHg 72%
    06:00 +21°C° 0 mm 2 m/s 700 mmHg 68%
    07:00 +21°C° 0 mm 2 m/s 700 mmHg 64%
    08:00 +24°C° 0 mm 2 m/s 700 mmHg 58%
    09:00 +26°C° 0 mm 3 m/s 700 mmHg 51%
    10:00 +27°C° 0 mm 3 m/s 700 mmHg 44%
    11:00 +28°C° 0 mm 3 m/s 699 mmHg 41%
    12:00 +29°C° 0 mm 4 m/s 699 mmHg 39%
    13:00 +30°C° 0 mm 4 m/s 698 mmHg 36%
    14:00 +32°C° 0.2 mm 4 m/s 698 mmHg 36%
    15:00 +31°C° 0.2 mm 3 m/s 697 mmHg 35%
    16:00 +31°C° 0.2 mm 3 m/s 697 mmHg 35%
    17:00 +31°C° 0.3 mm 3 m/s 697 mmHg 36%
    18:00 +30°C° 0.3 mm 3 m/s 697 mmHg 37%
    19:00 +30°C° 0.3 mm 3 m/s 698 mmHg 38%
    20:00 +29°C° 0.1 mm 2 m/s 698 mmHg 39%
    21:00 +29°C° 0.1 mm 2 m/s 697 mmHg 39%
    22:00 +28°C° 0.1 mm 2 m/s 697 mmHg 40%
    23:00 +28°C° 0 mm 2 m/s 697 mmHg 40%

    19 Dezembro, Quarta-feira

    Tempo Temperatura Precipitação Vento Pressão Humidade
    00:00 +28°C° 0 mm 2 m/s 696 mmHg 39%
    01:00 +28°C° 0 mm 2 m/s 696 mmHg 39%
    02:00 +27°C° 0 mm 2 m/s 695 mmHg 40%
    03:00 +27°C° 0 mm 2 m/s 695 mmHg 40%
    04:00 +27°C° 0 mm 2 m/s 695 mmHg 41%
    05:00 +27°C° 0 mm 2 m/s 695 mmHg 41%
    06:00 +28°C° 0 mm 3 m/s 696 mmHg 41%
    07:00 +28°C° 0 mm 3 m/s 696 mmHg 42%
    08:00 +29°C° 0.1 mm 3 m/s 696 mmHg 38%
    09:00 +30°C° 0.1 mm 2 m/s 696 mmHg 35%
    10:00 +31°C° 0.1 mm 2 m/s 696 mmHg 32%
    11:00 +32°C° 0.1 mm 2 m/s 695 mmHg 30%
    12:00 +34°C° 0.1 mm 2 m/s 695 mmHg 27%
    13:00 +34°C° 0.1 mm 2 m/s 695 mmHg 25%
    14:00 +35°C° 0.3 mm 3 m/s 694 mmHg 25%
    15:00 +35°C° 0.3 mm 3 m/s 694 mmHg 25%
    16:00 +35°C° 0.3 mm 4 m/s 694 mmHg 26%
    17:00 +33°C° 1.4 mm 5 m/s 694 mmHg 35%
    18:00 +29°C° 1.4 mm 7 m/s 695 mmHg 44%
    19:00 +26°C° 1.4 mm 8 m/s 695 mmHg 53%
    20:00 +24°C° 3.7 mm 8 m/s 696 mmHg 55%
    21:00 +24°C° 3.7 mm 8 m/s 698 mmHg 57%
    22:00 +23°C° 3.7 mm 8 m/s 699 mmHg 59%
    23:00 +23°C° 0.4 mm 7 m/s 699 mmHg 55%

    20 Dezembro, Quinta-feira

    Tempo Temperatura Precipitação Vento Pressão Humidade
    00:00 +23°C° 0.4 mm 6 m/s 699 mmHg 51%
    01:00 +23°C° 0.4 mm 5 m/s 699 mmHg 47%
    02:00 +23°C° 0 mm 6 m/s 699 mmHg 47%
    03:00 +22°C° 0 mm 6 m/s 699 mmHg 47%
    04:00 +22°C° 0 mm 6 m/s 700 mmHg 47%
    05:00 +22°C° 0 mm 5 m/s 700 mmHg 47%
    06:00 +22°C° 0 mm 5 m/s 700 mmHg 47%
    07:00 +22°C° 0 mm 5 m/s 701 mmHg 47%
    08:00 +23°C° 0 mm 4 m/s 700 mmHg 45%
    09:00 +25°C° 0 mm 4 m/s 700 mmHg 43%
    10:00 +26°C° 0 mm 4 m/s 700 mmHg 40%
    11:00 +27°C° 0 mm 4 m/s 699 mmHg 39%
    12:00 +28°C° 0 mm 4 m/s 699 mmHg 37%
    13:00 +29°C° 0 mm 3 m/s 698 mmHg 36%
    14:00 +29°C° 0 mm 3 m/s 698 mmHg 36%
    15:00 +29°C° 0 mm 3 m/s 697 mmHg 35%
    16:00 +30°C° 0 mm 3 m/s 697 mmHg 35%
    17:00 +29°C° 0 mm 3 m/s 697 mmHg 36%
    18:00 +28°C° 0 mm 2 m/s 697 mmHg 37%
    19:00 +28°C° 0 mm 2 m/s 697 mmHg 39%
    20:00 +27°C° 0 mm 2 m/s 698 mmHg 40%
    21:00 +27°C° 0 mm 2 m/s 698 mmHg 41%
    22:00 +26°C° 0 mm 1 m/s 698 mmHg 43%
    23:00 +26°C° 0 mm 1 m/s 698 mmHg 43%
    Mostrar mais